Regional Weather Roundup
Issued by NWS Green Bay, WI

Home | Current Version | Previous Version | Graphics & Text | Print | Product List | Glossary Off
Versions: 1 2 3 4 5 6 7 8 9 10 11 12 13 14 15 16 17 18 19 20 21 22 23 24 25 26 27 28 29 30 31 32 33 34 35 36 37 38 39 40 41 42 43 44 45 46 47 48 49 50

000
ASUS43 KGRB 282111
RWRGRB

NORTH-CENTRAL AND NORTHEAST WISCONSIN REGIONAL WEATHER ROUNDUP
NATIONAL WEATHER SERVICE GREEN BAY WI
400 PM CDT SUN AUG 28 2016

WIZ005-009-010>012-018-019-282200-
NORTH CENTRAL WISCONSIN

CITY           SKY/WX    TMP DP  RH WIND       PRES   REMARKS
IRONWOOD       SUNNY     76  60  57 VRB5      30.19S
MANITOWISH WTR PTSUNNY   74  61  63 SW6       30.21S
ARBOR VITAE    SUNNY     76  64  67 SW3       30.21F
EAGLE RIVER    MOSUNNY   75  58  54 W7        30.21S
LAND O LAKES   CLOUDY    76  59  56 CALM      30.22S
RHINELANDER    MOSUNNY   78  60  53 S7        30.21F
PHILLIPS       SUNNY     76  62  61 SW6       30.19F
ANTIGO         SUNNY     75  61  61 CALM      30.21F
TOMAHAWK       PTSUNNY   77  61  58 SW5       30.20F
MERRILL        SUNNY     76  63  63 W3        30.20F
$$

WIZ013-073-282200-
NORTHEAST WISCONSIN

CITY           SKY/WX    TMP DP  RH WIND       PRES   REMARKS
IRON MOUNTAIN  MOSUNNY   79  57  46 CALM      30.18S
MARINETTE      MOSUNNY  N/A N/A N/A SE6       30.18F
OCONTO         SUNNY     75  63  64 S6        30.17F
$$

WIZ017-030-035>037-045-282200-
CENTRAL WISCONSIN

CITY           SKY/WX    TMP DP  RH WIND       PRES   REMARKS
MEDFORD        MOSUNNY   76  65  70 S3        30.19F
WAUSAU         SUNNY     76  62  62 VRB3      30.18F
MOSINEE        MOSUNNY   79  64  61 SW5       30.20F
MARSHFIELD     MOSUNNY   79  63  57 W3        30.18F
WISC RAPIDS    SUNNY     80  64  58 VRB5      30.20S
STEVENS POINT  SUNNY     76  61  58 CALM      30.19S
WAUPACA        SUNNY     82  64  54 CALM      30.18S
SHAWANO        SUNNY     80  62  52 CALM      30.18S
CLINTONVILLE   MOSUNNY   79  61  53 W3        30.18S
WAUTOMA        SUNNY     79  66  64 S5        30.18F
$$

WIZ038-039-048-051-282200-
FOX VALLEY

CITY           SKY/WX    TMP DP  RH WIND       PRES   REMARKS
NWS GREEN BAY  SUNNY     79  65  62 W3        30.18S
APPLETON       MOSUNNY   79  61  53 VRB5      30.17F
OSHKOSH        SUNNY     77  65  66 E5        30.18F
FOND DU LAC    SUNNY     80  66  62 N3        30.19S
$$

WIZ022-050-052-282200-
EAST CENTRAL WISCONSIN

CITY           SKY/WX    TMP DP  RH WIND       PRES   REMARKS
EPHRAIM        FAIR      75  61  62 CALM      30.18S
WASHINGTON ISL NOT AVBL
STURGEON BAY   SUNNY     76  62  62 NW5       30.19F
MANITOWOC      SUNNY     72  62  71 MISG      30.21R
SHEBOYGAN      SUNNY     76  66  71 SE9       30.20R
$$

LMZ563-521-522-541>543-282200-
LAKESHORE

STATION/POSITION TIME  TEMP    WIND        PRES    VSBY  WAVE
                       AIR SEA DIR/SP/G                  HT/PER
                 (UTC) (F)     (DEG/KT/KT) (MB)    (MI)  (FT/S)
SHEBOYGAN LKSHOR 2100   66     180/ 11/ 11 1022.4R
KEWAUNEE LKSHORE 2000   67     180/  6/  7 1022.0F
N MID LAKE BUOY  2050   70 72  210/  8/  8 1021.6F         1
CHAMBERS ISLAND  2000   73     160/  6/  9 1021.7
MENOMINEE LKSHOR 2000   72     170/  9/ 11 1021.3F
$$




USA.gov is the U.S. government's official web portal to all federal, state and local government web resources and services.